Hourly Weather Roundup
Issued by NWS Central Illinois

Home | Current Version | Previous Version | Text Only | Print | Product List | Glossary Off
Versions: 1 2 3 4 5 6 7 8 9 10 11 12 13 14 15 16 17 18 19 20 21 22 23 24 25 26 27 28 29 30 31 32 33 34 35 36 37 38 39 40 41 42 43 44 45 46 47 48 49 50

000
NZUS43 KILX 040710
HWRILX

AREA WEATHER ROUNDUP
NATIONAL WEATHER SERVICE, LINCOLN IL
100 AM CST WED MAR 04 2015


CITY           SKY/WX    TMP DP  RH WIND       PRES   REMARKS
BLOOMINGTON    CLOUDY    31  27  85 NW14      29.93R WCI  21
CHAMPAIGN      CLOUDY    33  29  85 NW6       29.91F WCI  28
DECATUR        CLOUDY    34  27  75 NW7       29.93S WCI  28
FLORA          LGT RAIN  35  35 100 N5        29.94F WCI  31
GALESBURG      PTCLDY    22  15  75 NW13      29.97R WCI   9
JACKSONVILLE   CLOUDY    33  27  79 NW9       29.96R WCI  25
LACON          CLOUDY    26  20  78 NW13      29.95R WCI  15
LAWRENCEVILLE  LGT RAIN  35  33  92 N15       29.94R WCI  25
LITCHFIELD     CLOUDY    32  30  90 NW6       29.95R WCI  27
$$


CITY           SKY/WX    TMP DP  RH WIND       PRES   REMARKS
LINCOLN        CLOUDY    34  29  83 NW7       29.96R WCI  28
MACOMB         PTCLDY    23  18  81 NW17      30.01R WCI   9
MATTOON        CLOUDY    33  31  92 NW7       29.92R WCI  27
MT CARMEL AP   LGT RAIN  37  36  93 N9        29.93R WCI  31
OLNEY-NOBLE AP LGT RAIN  34  34 100 N7        29.93S WCI  28
PARIS          CLOUDY    34  33  95 CALM      29.92R
PEORIA         CLOUDY    29  22  75 NW10G18   29.97R WCI  20
PONTIAC        CLOUDY    31  28  87 NW14      29.92R WCI  21
RANTOUL        CLOUDY    33  30  87 NW6       29.90F WCI  28
ROBINSON       LGT RAIN  34  34  99 N3        29.94S
SPRINGFIELD    CLOUDY    34  27  75 NW10      29.96R WCI  26
TAYLORVILLE    CLOUDY    32  30  93 NW6       29.95R WCI  26
$$

...REGIONAL REPORTS...


CITY           SKY/WX    TMP DP  RH WIND       PRES   REMARKS
CHICAGO O`HARE CLOUDY    30  23  75 W12       29.87R WCI  20
KANKAKEE       CLOUDY    32  26  81 W6        29.90S WCI  26
MOLINE         PTCLDY    18  10  71 NW17G25   29.99R WCI   3
MOUNT VERNON   CLOUDY    37  34  87 N6        29.92F WCI  33
PITTSFIELD     CLOUDY    32  26  80 NW10      30.00R WCI  23
QUINCY         MOCLDY    26  17  68 N16       30.00R WCI  14
ROCKFORD       MOCLDY    23  15  71 NW15      29.91R WCI  10
$$


CITY           SKY/WX    TMP DP  RH WIND       PRES   REMARKS
BURLINGTON     PTCLDY    19  12  74 NW13      30.00R WCI   6
CEDAR RAPIDS   CLEAR     10   4  76 NW17      30.02R WCI  -8
DES MOINES     MOCLDY    15   5  64 NW17G24   30.12R WCI  -1
KIRKSVILLE     NOT AVBL
OTTUMWA        CLEAR     15   6  67 NW22G31   30.07R WCI  -3
ST LOUIS       LGT RAIN  36  30  79 N5        29.98R WCI  32
$$


CITY           SKY/WX    TMP DP  RH WIND       PRES   REMARKS
TERRE HAUTE    CLOUDY    35  32  88 NW5       29.92F WCI  31
EVANSVILLE     HVY RAIN  43  40  89 N6        29.92R FOG
INDIANAPOLIS   LGT RAIN  34  32  92 NW7       29.89S WCI  28
LAFAYETTE      CLOUDY    33  28  81 W7        29.90R WCI  27
MADISON        CLEAR     21  12  68 W9        29.88R WCI  11
MILWAUKEE      MOCLDY    29  18  63 W6        29.84R WCI  23
$$




USA.gov is the U.S. government's official web portal to all federal, state and local government web resources and services.